| time (UTC) | temp C | wind direction | speed KPH | gust KPH | rain 1hr cm | rain 24hr cm | rain mn cm | humidity % | barometer mb |
| 20260505124930 | 11 | 131 | 4.8 | 9.7 | 0.00 | 0.00 | 0.00 | 68 | 1007.8 |
| 20260505123919 | 11 | 97 | 4.8 | 8.0 | 0.00 | 0.00 | 0.00 | 69 | 1007.6 |
| 20260505123412 | 11 | 93 | 3.2 | 6.4 | 0.00 | 0.00 | 0.00 | 65 | 1007.5 |
| 20260505122906 | 11 | 82 | 1.6 | 8.0 | 0.00 | 0.00 | 0.00 | 64 | 1007.5 |
| 20260505122400 | 11 | 118 | 3.2 | 8.0 | 0.00 | 0.00 | 0.00 | 64 | 1007.4 |
| 20260505122114 | 11 | 64 | 1.6 | 4.8 | 0.00 | 0.00 | 0.00 | 64 | 1007.3 |
| 20260505121346 | 12 | 209 | 0.0 | 3.2 | 0.00 | 0.00 | 0.00 | 60 | 1007.2 |
| 20260505120840 | 12 | 89 | 0.0 | 1.6 | 0.00 | 0.00 | 0.00 | 61 | 1007.1 |
| 20260505120335 | 11 | 219 | 1.6 | 3.2 | 0.00 | 0.00 | 0.00 | 61 | 1007.1 |
| 20260505115828 | 11 | 219 | 1.6 | 4.8 | 0.00 | 0.00 | 0.00 | 60 | 1007.1 |
| 20260505115322 | 11 | 190 | 1.6 | 4.8 | 0.00 | 0.00 | 0.00 | 62 | 1006.9 |
| 20260505114816 | 11 | 127 | 3.2 | 8.0 | 0.00 | 0.00 | 0.00 | 63 | 1006.9 |
| 20260505114531 | 11 | 104 | 3.2 | 8.0 | 0.00 | 0.00 | 0.00 | 63 | 1006.8 |
| 20260505113804 | 12 | 120 | 1.6 | 3.2 | 0.00 | 0.00 | 0.00 | 60 | 1006.8 |
| 20260505113522 | 12 | 150 | 1.6 | 4.8 | 0.00 | 0.00 | 0.00 | 62 | 1006.7 |
| 20260505112752 | 12 | 86 | 3.2 | 8.0 | 0.00 | 0.00 | 0.00 | 61 | 1006.6 |
| 20260505112246 | 12 | 125 | 4.8 | 8.0 | 0.00 | 0.00 | 0.00 | 61 | 1006.5 |
| 20260505111740 | 12 | 57 | 3.2 | 8.0 | 0.00 | 0.00 | 0.00 | 61 | 1006.4 |
| 20260505111234 | 12 | 128 | 1.6 | 6.4 | 0.00 | 0.00 | 0.00 | 58 | 1006.3 |
| 20260505110728 | 12 | 142 | 0.0 | 6.4 | 0.00 | 0.00 | 0.00 | 57 | 1006.3 |
| 20260505110222 | 13 | 105 | 0.0 | 0.0 | 0.00 | 0.00 | 0.00 | 55 | 1006.1 |
| 20260505101629 | 13 | 233 | 1.6 | 3.2 | 0.00 | 0.00 | 0.00 | 53 | 1005.6 |
| 20260505101122 | 13 | 243 | 1.6 | 6.4 | 0.00 | 0.00 | 0.00 | 52 | 1005.5 |
| 20260505100616 | 14 | 239 | 3.2 | 8.0 | 0.00 | 0.00 | 0.00 | 51 | 1005.4 |
| 20260505100333 | 14 | 265 | 3.2 | 8.0 | 0.00 | 0.00 | 0.00 | 50 | 1005.3 |
| 20260505095604 | 15 | 321 | 1.6 | 3.2 | 0.00 | 0.00 | 0.00 | 53 | 1005.2 |
| 20260505095058 | 15 | 37 | 3.2 | 6.4 | 0.00 | 0.00 | 0.00 | 54 | 1005.1 |
| 20260505094813 | 15 | 64 | 4.8 | 8.0 | 0.00 | 0.00 | 0.00 | 53 | 1005.0 |
| 20260505094046 | 15 | 42 | 6.4 | 16.1 | 0.00 | 0.00 | 0.00 | 50 | 1005.0 |
| 20260505093541 | 16 | 13 | 12.9 | 20.9 | 0.00 | 0.00 | 0.00 | 46 | 1004.9 |
| 20260505093034 | 17 | 18 | 16.1 | 22.5 | 0.00 | 0.00 | 0.00 | 45 | 1004.8 |
| 20260505092746 | 17 | 72 | 14.5 | 22.5 | 0.00 | 0.00 | 0.00 | 41 | 1004.6 |
| 20260505092022 | 17 | 81 | 16.1 | 22.5 | 0.00 | 0.00 | 0.00 | 42 | 1004.6 |
| 20260505091516 | 17 | 90 | 17.7 | 25.7 | 0.00 | 0.00 | 0.00 | 41 | 1004.5 |
| 20260505091228 | 17 | 98 | 17.7 | 25.7 | 0.00 | 0.00 | 0.00 | 41 | 1004.4 |
| 20260505090504 | 17 | 84 | 16.1 | 25.7 | 0.00 | 0.00 | 0.00 | 43 | 1004.4 |
| 20260505085958 | 17 | 77 | 16.1 | 25.7 | 0.00 | 0.00 | 0.00 | 41 | 1004.5 |
| 20260505085452 | 17 | 93 | 17.7 | 25.7 | 0.00 | 0.00 | 0.00 | 42 | 1004.6 |
| 20260505084951 | 17 | 70 | 20.9 | 35.4 | 0.00 | 0.00 | 0.00 | 41 | 1004.5 |
| 20260505084451 | 18 | 63 | 20.9 | 35.4 | 0.00 | 0.00 | 0.00 | 41 | 1004.5 |
| 20260505084218 | 18 | 79 | 19.3 | 27.4 | 0.00 | 0.00 | 0.00 | 39 | 1004.4 |
| 20260505083451 | 18 | 84 | 17.7 | 27.4 | 0.00 | 0.00 | 0.00 | 39 | 1004.3 |
| 20260505082951 | 18 | 94 | 17.7 | 27.4 | 0.00 | 0.00 | 0.00 | 41 | 1004.3 |
| 20260505082451 | 18 | 82 | 17.7 | 29.0 | 0.00 | 0.00 | 0.00 | 39 | 1004.2 |
| 20260505082211 | 18 | 91 | 16.1 | 29.0 | 0.00 | 0.00 | 0.00 | 40 | 1004.1 |
| 20260505081451 | 18 | 77 | 16.1 | 25.7 | 0.00 | 0.00 | 0.00 | 39 | 1004.1 |
| 20260505080951 | 18 | 76 | 17.7 | 25.7 | 0.00 | 0.00 | 0.00 | 42 | 1004.0 |
| 20260505080452 | 18 | 71 | 16.1 | 25.7 | 0.00 | 0.00 | 0.00 | 40 | 1004.0 |
| 20260505080216 | 18 | 91 | 14.5 | 22.5 | 0.00 | 0.00 | 0.00 | 40 | 1004.0 |
| 20260505075451 | 18 | 91 | 14.5 | 22.5 | 0.00 | 0.00 | 0.00 | 41 | 1004.0 |
| 20260505074951 | 18 | 91 | 12.9 | 20.9 | 0.00 | 0.00 | 0.00 | 42 | 1003.9 |
| 20260505073949 | 18 | 97 | 14.5 | 22.5 | 0.00 | 0.00 | 0.00 | 39 | 1003.9 |
| 20260505073448 | 18 | 60 | 14.5 | 24.1 | 0.00 | 0.00 | 0.00 | 40 | 1003.9 |
| 20260505072949 | 18 | 88 | 16.1 | 25.7 | 0.00 | 0.00 | 0.00 | 38 | 1003.9 |
| 20260505072443 | 18 | 80 | 14.5 | 25.7 | 0.00 | 0.00 | 0.00 | 39 | 1003.8 |
| 20260505072158 | 19 | 110 | 12.9 | 20.9 | 0.00 | 0.00 | 0.00 | 38 | 1003.8 |
| 20260505071431 | 19 | 102 | 11.3 | 20.9 | 0.00 | 0.00 | 0.00 | 38 | 1003.7 |
| 20260505070925 | 19 | 108 | 9.7 | 19.3 | 0.00 | 0.00 | 0.00 | 37 | 1003.7 |
| 20260505070419 | 19 | 93 | 9.7 | 16.1 | 0.00 | 0.00 | 0.00 | 37 | 1003.5 |
| 20260505065913 | 19 | 124 | 9.7 | 22.5 | 0.00 | 0.00 | 0.00 | 37 | 1003.5 |
| 20260505065413 | 18 | 75 | 6.4 | 22.5 | 0.00 | 0.00 | 0.00 | 39 | 1003.5 |
| 20260505064913 | 18 | 91 | 6.4 | 11.3 | 0.00 | 0.00 | 0.00 | 39 | 1003.4 |
| 20260505064413 | 18 | 146 | 6.4 | 11.3 | 0.00 | 0.00 | 0.00 | 38 | 1003.4 |
| 20260505063913 | 18 | 165 | 4.8 | 11.3 | 0.00 | 0.00 | 0.00 | 38 | 1003.4 |
| 20260505063639 | 18 | 168 | 6.4 | 12.9 | 0.00 | 0.00 | 0.00 | 37 | 1003.3 |
| 20260505062913 | 18 | 139 | 4.8 | 12.9 | 0.00 | 0.00 | 0.00 | 39 | 1003.4 |
| 20260505062635 | 17 | 136 | 3.2 | 6.4 | 0.00 | 0.00 | 0.00 | 43 | 1003.4 |
| 20260505061913 | 17 | 265 | 3.2 | 8.0 | 0.00 | 0.00 | 0.00 | 43 | 1003.4 |
| 20260505061413 | 17 | 137 | 4.8 | 9.7 | 0.00 | 0.00 | 0.00 | 42 | 1003.3 |
| 20260505060912 | 18 | 246 | 6.4 | 9.7 | 0.00 | 0.00 | 0.00 | 41 | 1003.3 |
| 20260505060413 | 18 | 69 | 6.4 | 9.7 | 0.00 | 0.00 | 0.00 | 41 | 1003.2 |
| 20260505055912 | 18 | 111 | 4.8 | 8.0 | 0.00 | 0.00 | 0.00 | 40 | 1003.2 |
| 20260505055412 | 18 | 128 | 3.2 | 6.4 | 0.00 | 0.00 | 0.00 | 37 | 1003.2 |
| 20260505054913 | 18 | 333 | 1.6 | 6.4 | 0.00 | 0.00 | 0.00 | 37 | 1003.1 |
| 20260505054413 | 18 | 200 | 1.6 | 4.8 | 0.00 | 0.00 | 0.00 | 38 | 1003.2 |
| 20260505053913 | 17 | 206 | 3.2 | 4.8 | 0.00 | 0.00 | 0.00 | 38 | 1003.2 |
| 20260505052912 | 17 | 235 | 1.6 | 8.0 | 0.00 | 0.00 | 0.00 | 41 | 1003.2 |
| 20260505052413 | 17 | 205 | 3.2 | 8.0 | 0.00 | 0.00 | 0.00 | 44 | 1003.2 |
| 20260505051913 | 17 | 353 | 3.2 | 9.7 | 0.00 | 0.00 | 0.00 | 42 | 1003.2 |
| 20260505051640 | 17 | 155 | 0.0 | 9.7 | 0.00 | 0.00 | 0.00 | 38 | 1003.2 |
| 20260505050910 | 16 | 129 | 1.6 | 6.4 | 0.00 | 0.00 | 0.00 | 42 | 1003.2 |
| 20260505050635 | 17 | 24 | 1.6 | 8.0 | 0.00 | 0.00 | 0.00 | 43 | 1003.2 |
| 20260505041327 | 19 | 165 | 11.3 | 17.7 | 0.00 | 0.00 | 0.00 | 36 | 1003.0 |
| 20260505040821 | 19 | 140 | 6.4 | 12.9 | 0.00 | 0.00 | 0.00 | 36 | 1002.9 |
| 20260505040315 | 18 | 160 | 3.2 | 9.7 | 0.00 | 0.00 | 0.00 | 36 | 1003.0 |
| 20260505040034 | 18 | 164 | 0.0 | 4.8 | 0.00 | 0.00 | 0.00 | 37 | 1002.8 |
| 20260505035304 | 18 | 154 | 1.6 | 6.4 | 0.00 | 0.00 | 0.00 | 37 | 1002.8 |
| 20260505034758 | 18 | 182 | 1.6 | 6.4 | 0.00 | 0.00 | 0.00 | 37 | 1002.7 |
| 20260505034251 | 19 | 58 | 4.8 | 12.9 | 0.00 | 0.00 | 0.00 | 38 | 1002.8 |
| 20260505033745 | 20 | 246 | 6.4 | 12.9 | 0.00 | 0.00 | 0.00 | 33 | 1002.7 |
| 20260505033239 | 21 | 227 | 6.4 | 12.9 | 0.00 | 0.00 | 0.00 | 31 | 1002.6 |
| 20260505032733 | 21 | 250 | 3.2 | 12.9 | 0.00 | 0.00 | 0.00 | 30 | 1002.7 |
| 20260505032227 | 21 | 352 | 4.8 | 8.0 | 0.00 | 0.00 | 0.00 | 29 | 1002.7 |
| 20260505031721 | 21 | 102 | 4.8 | 14.5 | 0.00 | 0.00 | 0.00 | 31 | 1002.6 |
| 20260505031215 | 21 | 143 | 4.8 | 14.5 | 0.00 | 0.00 | 0.00 | 32 | 1002.6 |
| 20260505030203 | 21 | 277 | 9.7 | 19.3 | 0.00 | 0.00 | 0.00 | 30 | 1002.3 |
| 20260505025657 | 22 | 252 | 9.7 | 19.3 | 0.00 | 0.00 | 0.00 | 29 | 1002.2 |
| 20260505025151 | 21 | 260 | 8.0 | 19.3 | 0.00 | 0.00 | 0.00 | 31 | 1002.3 |
| 20260505024645 | 21 | 258 | 6.4 | 12.9 | 0.00 | 0.00 | 0.00 | 31 | 1002.2 |
| 20260505024138 | 22 | 278 | 8.0 | 16.1 | 0.00 | 0.00 | 0.00 | 30 | 1002.2 |
| 20260505023631 | 23 | 264 | 9.7 | 17.7 | 0.00 | 0.00 | 0.00 | 29 | 1002.2 |
| 20260505023349 | 23 | 288 | 9.7 | 19.3 | 0.00 | 0.00 | 0.00 | 28 | 1002.2 |
| 20260505022619 | 23 | 285 | 11.3 | 22.5 | 0.00 | 0.00 | 0.00 | 28 | 1002.2 |
| 20260505022113 | 23 | 322 | 12.9 | 22.5 | 0.00 | 0.00 | 0.00 | 28 | 1002.1 |
| 20260505021608 | 23 | 257 | 11.3 | 24.1 | 0.00 | 0.00 | 0.00 | 28 | 1002.2 |
| 20260505021101 | 24 | 287 | 14.5 | 30.6 | 0.00 | 0.00 | 0.00 | 28 | 1002.1 |
| 20260505020555 | 24 | 261 | 16.1 | 30.6 | 0.00 | 0.00 | 0.00 | 28 | 1002.1 |
| 20260505020049 | 25 | 319 | 16.1 | 25.7 | 0.00 | 0.00 | 0.00 | 26 | 1002.1 |
| 20260505015544 | 25 | 285 | 14.5 | 27.4 | 0.00 | 0.00 | 0.00 | 26 | 1002.1 |
| 20260505015038 | 25 | 278 | 17.7 | 27.4 | 0.00 | 0.00 | 0.00 | 25 | 1002.2 |
| 20260505014532 | 25 | 295 | 17.7 | 27.4 | 0.00 | 0.00 | 0.00 | 24 | 1002.2 |
| 20260505014026 | 25 | 297 | 19.3 | 27.4 | 0.00 | 0.00 | 0.00 | 24 | 1002.1 |
| 20260505013519 | 25 | 283 | 17.7 | 29.0 | 0.00 | 0.00 | 0.00 | 23 | 1002.1 |
| 20260505013013 | 25 | 307 | 17.7 | 30.6 | 0.00 | 0.00 | 0.00 | 23 | 1002.2 |
| 20260505012507 | 25 | 296 | 19.3 | 32.2 | 0.00 | 0.00 | 0.00 | 23 | 1002.2 |
| 20260505012001 | 25 | 240 | 19.3 | 32.2 | 0.00 | 0.00 | 0.00 | 22 | 1002.3 |
| 20260505011455 | 26 | 309 | 17.7 | 29.0 | 0.00 | 0.00 | 0.00 | 22 | 1002.3 |
| 20260505010949 | 25 | 286 | 19.3 | 29.0 | 0.00 | 0.00 | 0.00 | 22 | 1002.3 |
| 20260505010705 | 26 | 302 | 17.7 | 30.6 | 0.00 | 0.00 | 0.00 | 23 | 1002.6 |
| 20260505005937 | 26 | 290 | 17.7 | 30.6 | 0.00 | 0.00 | 0.00 | 22 | 1002.5 |
| 20260505005649 | 26 | 264 | 19.3 | 35.4 | 0.00 | 0.00 | 0.00 | 22 | 1002.6 |
| 20260505004925 | 26 | 295 | 20.9 | 35.4 | 0.00 | 0.00 | 0.00 | 22 | 1002.6 |
| 20260505004638 | 26 | 282 | 19.3 | 32.2 | 0.00 | 0.00 | 0.00 | 22 | 1002.6 |
| 20260505003912 | 26 | 284 | 19.3 | 32.2 | 0.00 | 0.00 | 0.00 | 23 | 1002.7 |
| 20260505003407 | 26 | 266 | 17.7 | 27.4 | 0.00 | 0.00 | 0.00 | 24 | 1002.8 |
| 20260505002901 | 26 | 281 | 16.1 | 27.4 | 0.00 | 0.00 | 0.00 | 24 | 1002.7 |
| 20260505002355 | 26 | 312 | 16.1 | 29.0 | 0.00 | 0.00 | 0.00 | 26 | 1002.8 |
| 20260505002110 | 26 | 301 | 19.3 | 29.0 | 0.00 | 0.00 | 0.00 | 23 | 1002.8 |
| 20260505001343 | 26 | 276 | 20.9 | 32.2 | 0.00 | 0.00 | 0.00 | 24 | 1002.8 |
| 20260505000841 | 26 | 290 | 19.3 | 32.2 | 0.00 | 0.00 | 0.00 | 24 | 1002.8 |
| 20260505000331 | 26 | 256 | 19.3 | 29.0 | 0.00 | 0.00 | 0.00 | 24 | 1002.8 |
| 20260504235825 | 26 | 258 | 19.3 | 29.0 | 0.00 | 0.00 | 0.00 | 26 | 1002.9 |
| 20260504235320 | 26 | 251 | 20.9 | 30.6 | 0.00 | 0.00 | 0.00 | 26 | 1002.9 |
| 20260504234814 | 26 | 283 | 20.9 | 30.6 | 0.00 | 0.00 | 0.00 | 26 | 1003.0 |
| 20260504234307 | 26 | 284 | 19.3 | 30.6 | 0.00 | 0.00 | 0.00 | 26 | 1003.0 |
| 20260504233802 | 26 | 271 | 17.7 | 30.6 | 0.00 | 0.00 | 0.00 | 26 | 1002.9 |
| 20260504233255 | 26 | 285 | 16.1 | 29.0 | 0.00 | 0.00 | 0.00 | 26 | 1003.0 |
| 20260504233011 | 26 | 285 | 17.7 | 30.6 | 0.00 | 0.00 | 0.00 | 27 | 1003.1 |
| 20260504232243 | 26 | 282 | 16.1 | 30.6 | 0.00 | 0.00 | 0.00 | 28 | 1003.1 |
| 20260504231737 | 26 | 290 | 16.1 | 29.0 | 0.00 | 0.00 | 0.00 | 27 | 1003.2 |
| 20260504231455 | 26 | 289 | 16.1 | 29.0 | 0.00 | 0.00 | 0.00 | 27 | 1003.3 |
| 20260504230948 | 26 | 245 | 14.5 | 27.4 | 0.00 | 0.00 | 0.00 | 27 | 1003.3 |
| 20260504230220 | 26 | 290 | 14.5 | 27.4 | 0.00 | 0.00 | 0.00 | 27 | 1003.3 |
| 20260504225713 | 26 | 268 | 14.5 | 24.1 | 0.00 | 0.00 | 0.00 | 28 | 1003.4 |
| 20260504225432 | 26 | 293 | 12.9 | 24.1 | 0.00 | 0.00 | 0.00 | 27 | 1003.5 |
| 20260504224702 | 26 | 294 | 12.9 | 25.7 | 0.00 | 0.00 | 0.00 | 29 | 1003.7 |
| 20260504224421 | 25 | 292 | 16.1 | 27.4 | 0.00 | 0.00 | 0.00 | 28 | 1003.7 |
| 20260504223702 | 25 | 280 | 14.5 | 29.0 | 0.00 | 0.00 | 0.00 | 28 | 1003.8 |
| 20260504223200 | 26 | 281 | 14.5 | 29.0 | 0.00 | 0.00 | 0.00 | 28 | 1003.8 |
| 20260504222657 | 25 | 285 | 12.9 | 25.7 | 0.00 | 0.00 | 0.00 | 29 | 1004.0 |
| 20260504222157 | 25 | 272 | 12.9 | 24.1 | 0.00 | 0.00 | 0.00 | 28 | 1004.0 |
| 20260504221916 | 25 | 229 | 14.5 | 24.1 | 0.00 | 0.00 | 0.00 | 29 | 1004.2 |
| 20260504221159 | 25 | 288 | 14.5 | 24.1 | 0.00 | 0.00 | 0.00 | 29 | 1004.2 |
| 20260504220658 | 25 | 268 | 12.9 | 22.5 | 0.00 | 0.00 | 0.00 | 30 | 1004.2 |
| 20260504220158 | 25 | 274 | 11.3 | 22.5 | 0.00 | 0.00 | 0.00 | 30 | 1004.4 |
| 20260504215658 | 25 | 288 | 11.3 | 20.9 | 0.00 | 0.00 | 0.00 | 31 | 1004.4 |
| 20260504215158 | 25 | 229 | 14.5 | 25.7 | 0.00 | 0.00 | 0.00 | 31 | 1004.5 |
| 20260504214659 | 25 | 293 | 12.9 | 25.7 | 0.00 | 0.00 | 0.00 | 29 | 1004.5 |
| 20260504214200 | 25 | 258 | 11.3 | 20.9 | 0.00 | 0.00 | 0.00 | 33 | 1004.6 |
| 20260504213700 | 24 | 303 | 12.9 | 20.9 | 0.00 | 0.00 | 0.00 | 32 | 1004.8 |
| 20260504213200 | 25 | 269 | 14.5 | 22.5 | 0.00 | 0.00 | 0.00 | 31 | 1004.9 |
| 20260504212919 | 24 | 283 | 14.5 | 22.5 | 0.00 | 0.00 | 0.00 | 33 | 1005.0 |
| 20260504212154 | 24 | 296 | 14.5 | 24.1 | 0.00 | 0.00 | 0.00 | 32 | 1005.0 |
| 20260504211654 | 25 | 243 | 14.5 | 24.1 | 0.00 | 0.00 | 0.00 | 33 | 1005.1 |
| 20260504211419 | 25 | 340 | 12.9 | 20.9 | 0.00 | 0.00 | 0.00 | 32 | 1005.2 |
| 20260504210654 | 25 | 284 | 14.5 | 24.1 | 0.00 | 0.00 | 0.00 | 32 | 1005.2 |
| 20260504210426 | 24 | 253 | 14.5 | 24.1 | 0.00 | 0.00 | 0.00 | 32 | 1005.2 |
| 20260504205654 | 24 | 279 | 14.5 | 24.1 | 0.00 | 0.00 | 0.00 | 33 | 1005.3 |
| 20260504205154 | 24 | 269 | 14.5 | 24.1 | 0.00 | 0.00 | 0.00 | 32 | 1005.4 |
| 20260504204654 | 24 | 218 | 12.9 | 24.1 | 0.00 | 0.00 | 0.00 | 32 | 1005.4 |
| 20260504204154 | 24 | 263 | 12.9 | 24.1 | 0.00 | 0.00 | 0.00 | 33 | 1005.5 |
| 20260504203154 | 23 | 269 | 12.9 | 22.5 | 0.00 | 0.00 | 0.00 | 33 | 1005.7 |
| 20260504202654 | 24 | 311 | 12.9 | 22.5 | 0.00 | 0.00 | 0.00 | 33 | 1005.6 |
| 20260504202414 | 23 | 271 | 14.5 | 27.4 | 0.00 | 0.00 | 0.00 | 33 | 1005.7 |
| 20260504201653 | 23 | 250 | 12.9 | 27.4 | 0.00 | 0.00 | 0.00 | 33 | 1005.7 |
| 20260504201154 | 23 | 295 | 12.9 | 24.1 | 0.00 | 0.00 | 0.00 | 35 | 1005.8 |
| 20260504200654 | 23 | 248 | 14.5 | 24.1 | 0.00 | 0.00 | 0.00 | 32 | 1006.0 |
| 20260504200154 | 23 | 265 | 12.9 | 24.1 | 0.00 | 0.00 | 0.00 | 32 | 1006.0 |
| 20260504195654 | 23 | 283 | 12.9 | 20.9 | 0.00 | 0.00 | 0.00 | 34 | 1006.1 |
| 20260504195154 | 23 | 238 | 12.9 | 20.9 | 0.00 | 0.00 | 0.00 | 34 | 1006.2 |
| 20260504194654 | 23 | 273 | 12.9 | 20.9 | 0.00 | 0.00 | 0.00 | 34 | 1006.3 |
| 20260504194154 | 23 | 348 | 12.9 | 20.9 | 0.00 | 0.00 | 0.00 | 35 | 1006.3 |
| 20260504193916 | 22 | 277 | 14.5 | 20.9 | 0.00 | 0.00 | 0.00 | 35 | 1006.3 |
| 20260504193154 | 22 | 267 | 12.9 | 20.9 | 0.00 | 0.00 | 0.00 | 35 | 1006.4 |
| 20260504192653 | 22 | 291 | 11.3 | 20.9 | 0.00 | 0.00 | 0.00 | 36 | 1006.5 |
| 20260504192154 | 22 | 297 | 9.7 | 20.9 | 0.00 | 0.00 | 0.00 | 37 | 1006.5 |
| 20260504191654 | 22 | 277 | 9.7 | 17.7 | 0.00 | 0.00 | 0.00 | 37 | 1006.5 |
| 20260504191153 | 22 | 240 | 9.7 | 17.7 | 0.00 | 0.00 | 0.00 | 39 | 1006.6 |
| 20260504190646 | 21 | 285 | 9.7 | 19.3 | 0.00 | 0.00 | 0.00 | 39 | 1006.7 |
| 20260504185637 | 21 | 323 | 12.9 | 22.5 | 0.00 | 0.00 | 0.00 | 39 | 1006.9 |
| 20260504185138 | 21 | 281 | 9.7 | 22.5 | 0.00 | 0.00 | 0.00 | 40 | 1006.9 |
| 20260504184638 | 21 | 285 | 8.0 | 14.5 | 0.00 | 0.00 | 0.00 | 39 | 1006.9 |
| 20260504184138 | 21 | 306 | 9.7 | 16.1 | 0.00 | 0.00 | 0.00 | 40 | 1007.1 |
| 20260504183636 | 21 | 306 | 9.7 | 16.1 | 0.00 | 0.00 | 0.00 | 40 | 1007.1 |
| 20260504183353 | 21 | 292 | 9.7 | 17.7 | 0.00 | 0.00 | 0.00 | 39 | 1007.1 |
| 20260504182858 | 21 | 284 | 8.0 | 17.7 | 0.00 | 0.00 | 0.00 | 40 | 1007.2 |
| 20260504182133 | 20 | 289 | 8.0 | 14.5 | 0.00 | 0.00 | 0.00 | 41 | 1007.3 |
| 20260504181634 | 20 | 307 | 8.0 | 14.5 | 0.00 | 0.00 | 0.00 | 41 | 1007.4 |
| 20260504181133 | 20 | 283 | 6.4 | 16.1 | 0.00 | 0.00 | 0.00 | 42 | 1007.4 |
| 20260504180632 | 20 | 289 | 8.0 | 16.1 | 0.00 | 0.00 | 0.00 | 42 | 1007.5 |
| 20260504180403 | 20 | 297 | 8.0 | 14.5 | 0.00 | 0.00 | 0.00 | 40 | 1007.4 |
| 20260504175631 | 20 | 293 | 8.0 | 17.7 | 0.00 | 0.00 | 0.00 | 41 | 1007.5 |
| 20260504175132 | 19 | 296 | 9.7 | 17.7 | 0.00 | 0.00 | 0.00 | 41 | 1007.6 |
| 20260504174631 | 20 | 273 | 8.0 | 14.5 | 0.00 | 0.00 | 0.00 | 40 | 1007.5 |
| 20260504173630 | 20 | 287 | 6.4 | 12.9 | 0.00 | 0.00 | 0.00 | 42 | 1007.6 |
| 20260504173125 | 20 | 300 | 4.8 | 9.7 | 0.00 | 0.00 | 0.00 | 42 | 1007.6 |
| 20260504172619 | 19 | 268 | 3.2 | 8.0 | 0.00 | 0.00 | 0.00 | 43 | 1007.6 |
| 20260504172113 | 19 | 288 | 3.2 | 8.0 | 0.00 | 0.00 | 0.00 | 39 | 1007.6 |
| 20260504171607 | 19 | 300 | 3.2 | 8.0 | 0.00 | 0.00 | 0.00 | 41 | 1007.7 |
| 20260504171101 | 18 | 237 | 4.8 | 9.7 | 0.00 | 0.00 | 0.00 | 43 | 1007.7 |
| 20260504170819 | 18 | 264 | 4.8 | 9.7 | 0.00 | 0.00 | 0.00 | 41 | 1007.7 |
| 20260504150835 | 12 | 87 | 19.3 | 29.0 | 0.00 | 0.00 | 0.00 | 58 | 1007.9 |
| 20260504150329 | 12 | 73 | 20.9 | 30.6 | 0.00 | 0.00 | 0.00 | 57 | 1007.9 |
| 20260504140723 | 12 | 94 | 20.9 | 30.6 | 0.00 | 0.00 | 0.00 | 53 | 1007.9 |
| 20260504140217 | 12 | 97 | 19.3 | 27.4 | 0.00 | 0.00 | 0.00 | 54 | 1007.8 |